Weather History for Togiak, AK

Change the Weather History Date:

Sunday, August 25, 2013

  Actual Average Record
Temperature  
Mean Temperature 52 °F -  
Max Temperature 55 °F 55 °F 64 °F (2004)
Min Temperature 50 °F 43 °F 39 °F (1998)
Degree Days  
Heating Degree Days 12    
Growing Degree Days 2 (Base 50)    
Moisture  
Dew Point 50 °F    
Average Humidity 89    
Maximum Humidity 100    
Minimum Humidity 67    
Precipitation  
Precipitation 0.42 in - - ()
Sea Level Pressure  
Sea Level Pressure 29.70 in    
Wind  
Wind Speed 9 mph (SSW)    
Max Wind Speed 22 mph    
Max Gust Speed 26 mph    
Visibility 9 miles    
Events      
Averages and records for this station are not official NWS values.
T = Trace of Precipitation, MM = Missing Value Source: NWS Daily Summary

Daily Weather History Graph

Daily Weather History Graph

Search for Another Location

Airport:

Trip Planner

Search our weather history database for the weather conditions in past years. The results will help you decide how hot, cold, wet, or windy it might be!

Date:

Astronomy

Aug. 25, 2013 Rise Set
Actual Time 7:24 AM AKDT 10:01 PM AKDT
Civil Twilight 6:38 AM AKDT 10:46 PM AKDT
Nautical Twilight 5:38 AM AKDT 11:45 PM AKDT
Astronomical Twilight 4:13 AM AKDT 1:07 AM AKDT
Moon 11:08 PM AKDT (8/25) 2:06 PM AKDT (8/25)
Length of Visible Light 16h 07m
Length of Day
14h 36m
Waning Gibbous, 74% of the Moon is Illuminated
Aug 25
Waning Gibbous
Aug 28
Last Quarter
Sep 5
New
Sep 12
First Quarter
Sep 19
Full

Hourly Weather History & Observations

Time (AKDT) Temp. Dew Point Humidity Pressure Visibility Wind Dir Wind Speed Gust Speed Precip Events Conditions
12:16 AM 55.4 °F 44.6 °F 67% 29.81 in 10.0 mi North 3.5 mph - N/A   Clear
12:36 AM 53.6 °F 46.4 °F 77% 29.81 in 10.0 mi North 3.5 mph - N/A   Clear
12:56 AM 53.6 °F 46.4 °F 77% 29.81 in 10.0 mi Calm Calm - N/A   Clear
1:16 AM 53.6 °F 48.2 °F 82% 29.80 in 4.0 mi Calm Calm - N/A   Mostly Cloudy
1:36 AM 55.4 °F 48.2 °F 77% 29.80 in 10.0 mi SW 5.8 mph - N/A   Mostly Cloudy
1:56 AM 55.4 °F 46.4 °F 72% 29.79 in 10.0 mi Calm Calm - N/A   Mostly Cloudy
2:16 AM 51.8 °F 48.2 °F 88% 29.78 in 10.0 mi Calm Calm - N/A   Overcast
2:36 AM 51.8 °F 48.2 °F 88% 29.78 in 10.0 mi Calm Calm - N/A   Overcast
2:56 AM 53.6 °F 50.0 °F 88% 29.77 in 10.0 mi ESE 5.8 mph - N/A   Overcast
3:16 AM 53.6 °F 48.2 °F 82% 29.77 in 10.0 mi SE 5.8 mph - N/A   Overcast
3:36 AM 53.6 °F 50.0 °F 88% 29.78 in 10.0 mi South 4.6 mph - N/A   Overcast
3:56 AM 53.6 °F 50.0 °F 88% 29.77 in 10.0 mi NW 3.5 mph - N/A   Overcast
4:16 AM 53.6 °F 48.2 °F 82% 29.76 in 10.0 mi Calm Calm - N/A   Overcast
4:36 AM 55.4 °F 51.8 °F 88% 29.75 in 10.0 mi South 8.1 mph - N/A   Overcast
4:56 AM 55.4 °F 50.0 °F 82% 29.75 in 10.0 mi South 9.2 mph - 0.01 in   Overcast
5:16 AM 53.6 °F 48.2 °F 82% 29.75 in 10.0 mi South 9.2 mph - 0.02 in   Overcast
5:36 AM 53.6 °F 50.0 °F 88% 29.75 in 10.0 mi South 10.4 mph - 0.04 in   Overcast
5:56 AM 53.6 °F 50.0 °F 88% 29.74 in 10.0 mi South 11.5 mph - 0.08 in   Overcast
6:16 AM 53.6 °F 50.0 °F 88% 29.73 in 9.0 mi South 8.1 mph - 0.02 in   Overcast
6:36 AM 53.6 °F 50.0 °F 88% 29.72 in 9.0 mi South 9.2 mph - 0.03 in   Overcast
6:56 AM 51.8 °F 50.0 °F 94% 29.71 in 10.0 mi SSE 8.1 mph - 0.05 in   Overcast
7:16 AM 51.8 °F 50.0 °F 94% 29.70 in 10.0 mi SSE 12.7 mph - 0.01 in   Overcast
7:36 AM 51.8 °F 50.0 °F 94% 29.70 in 9.0 mi SE 11.5 mph - 0.05 in   Overcast
7:56 AM 51.8 °F 50.0 °F 94% 29.70 in 10.0 mi South 17.3 mph - 0.11 in   Overcast
8:16 AM 51.8 °F 50.0 °F 94% 29.70 in 10.0 mi SSE 17.3 mph 20.7 mph 0.02 in   Mostly Cloudy
8:36 AM 51.8 °F 50.0 °F 94% 29.69 in 5.0 mi SSE 16.1 mph - 0.10 in   Overcast
8:56 AM 51.8 °F 48.2 °F 88% 29.69 in 10.0 mi SSE 17.3 mph - 0.13 in   Overcast
9:16 AM 51.8 °F 46.4 °F 82% 29.69 in 10.0 mi SE 19.6 mph - N/A   Overcast
9:36 AM 51.8 °F 48.2 °F 88% 29.67 in 10.0 mi SSE 20.7 mph 26.5 mph 0.01 in   Overcast
9:56 AM 51.8 °F 48.2 °F 88% 29.67 in 10.0 mi SE 21.9 mph - 0.01 in   Overcast
10:16 AM 50.0 °F 48.2 °F 94% 29.67 in 8.0 mi SE 17.3 mph - N/A   Overcast
10:36 AM 50.0 °F 48.2 °F 94% 29.66 in 7.0 mi ESE 16.1 mph - N/A   Overcast
10:56 AM 50.0 °F 48.2 °F 94% 29.65 in 2.5 mi ESE 19.6 mph - N/A   Overcast
11:16 AM 51.8 °F 48.2 °F 88% 29.65 in 3.0 mi SE 19.6 mph - N/A   Overcast
11:36 AM 51.8 °F 50.0 °F 94% 29.65 in 9.0 mi SE 20.7 mph - N/A   Overcast
11:56 AM 51.8 °F 51.8 °F 100% 29.64 in 7.0 mi SE 20.7 mph - 0.01 in   Overcast
12:16 PM 51.8 °F 51.8 °F 100% 29.63 in 6.0 mi SE 20.7 mph - 0.01 in   Overcast
12:36 PM 51.8 °F 51.8 °F 100% 29.63 in 8.0 mi ESE 19.6 mph - 0.02 in   Overcast
12:56 PM 51.8 °F 51.8 °F 100% 29.63 in 10.0 mi SE 18.4 mph - 0.02 in   Overcast
1:16 PM 53.6 °F 51.8 °F 94% 29.63 in 5.0 mi ESE 15.0 mph - N/A   Overcast
1:36 PM 53.6 °F 53.6 °F 100% 29.64 in 5.0 mi SW 12.7 mph - N/A   Overcast
1:56 PM 53.6 °F 51.8 °F 94% 29.64 in 3.0 mi SW 11.5 mph - N/A   Overcast
2:16 PM 55.4 °F 53.6 °F 94% 29.64 in 7.0 mi SSW 13.8 mph - N/A   Overcast
2:36 PM 55.4 °F 53.6 °F 94% 29.64 in 2.5 mi SW 12.7 mph - N/A   Overcast
2:56 PM 55.4 °F 53.6 °F 94% 29.64 in 3.0 mi SSW 13.8 mph - N/A   Overcast
3:16 PM 55.4 °F 53.6 °F 94% 29.65 in 10.0 mi SSW 13.8 mph - N/A   Overcast
3:36 PM 55.4 °F 53.6 °F 94% 29.65 in 8.0 mi SSW 12.7 mph - N/A   Overcast
3:56 PM 55.4 °F 53.6 °F 94% 29.65 in 9.0 mi SSW 11.5 mph - N/A   Overcast
4:16 PM 55.4 °F 53.6 °F 94% 29.65 in 10.0 mi SW 13.8 mph - N/A   Overcast
4:36 PM 55.4 °F 53.6 °F 94% 29.65 in 10.0 mi SW 13.8 mph - N/A   Overcast
4:56 PM 55.4 °F 53.6 °F 94% 29.65 in 10.0 mi WSW 9.2 mph - N/A   Overcast
5:16 PM 55.4 °F 53.6 °F 94% 29.65 in 9.0 mi SW 10.4 mph - N/A   Overcast
5:36 PM 55.4 °F 53.6 °F 94% 29.65 in 10.0 mi SW 13.8 mph - N/A   Overcast
5:56 PM 55.4 °F 53.6 °F 94% 29.65 in 10.0 mi WSW 11.5 mph - N/A   Overcast
6:16 PM 55.4 °F 53.6 °F 94% 29.65 in 10.0 mi SW 13.8 mph - N/A   Overcast
6:36 PM 55.4 °F 51.8 °F 88% 29.66 in 10.0 mi SW 12.7 mph - N/A   Overcast
6:56 PM 55.4 °F 51.8 °F 88% 29.65 in 10.0 mi SW 16.1 mph - N/A   Overcast
7:16 PM 55.4 °F 51.8 °F 88% 29.66 in 10.0 mi WSW 16.1 mph - N/A   Overcast
7:36 PM 55.4 °F 51.8 °F 88% 29.67 in 10.0 mi WSW 10.4 mph - N/A   Overcast
7:56 PM 53.6 °F 51.8 °F 94% 29.67 in 10.0 mi WSW 10.4 mph - N/A   Overcast
8:16 PM 53.6 °F 50.0 °F 88% 29.67 in 10.0 mi WSW 11.5 mph - N/A   Overcast
8:36 PM 53.6 °F 48.2 °F 82% 29.67 in 10.0 mi West 12.7 mph - N/A   Overcast
8:56 PM 53.6 °F 48.2 °F 82% 29.67 in 10.0 mi West 11.5 mph - N/A   Overcast
9:16 PM 53.6 °F 48.2 °F 82% 29.69 in 10.0 mi WSW 9.2 mph - N/A   Overcast
9:36 PM 51.8 °F 48.2 °F 88% 29.69 in 10.0 mi WSW 16.1 mph 20.7 mph N/A   Overcast
9:56 PM 51.8 °F 48.2 °F 88% 29.69 in 10.0 mi WSW 11.5 mph - N/A   Overcast
10:16 PM 51.8 °F 48.2 °F 88% 29.69 in 10.0 mi West 13.8 mph - N/A   Mostly Cloudy
10:36 PM 51.8 °F 46.4 °F 82% 29.70 in 10.0 mi WSW 10.4 mph - N/A   Scattered Clouds
10:56 PM 51.8 °F 46.4 °F 82% 29.71 in 10.0 mi West 12.7 mph - N/A   Overcast
11:16 PM 51.8 °F 46.4 °F 82% 29.71 in 10.0 mi West 16.1 mph - N/A   Mostly Cloudy
11:36 PM 50.0 °F 46.4 °F 87% 29.71 in 10.0 mi West 11.5 mph - N/A   Clear
11:56 PM 50.0 °F 46.4 °F 87% 29.72 in 10.0 mi West 11.5 mph - N/A   Clear